Theta_e
308 308 309 309 310 311 311 311 311 311 311 310 310 309 309 309 309 309 310 311 310 311 314 315 311 311 311 314 316 315 319 317 319 321 322 323 325 325 328 329 346 352 354 354 353
306 306 306 307 307 308 308 309 310 310 310 310 310 309 307 308 308 309 309 310 312 315 316 314 311 309 313 315 317 318 318 317 318 320 321 323 324 324 326 328 333 354 352 352 354
305 305 305 305 305 305 306 307 308 308 310 310 311 309 305 308 308 309 314 313 315 316 316 313 309 310 312 314 316 317 316 316 318 320 320 321 322 322 324 326 331 350 355 353 353
305 305 304 304 304 304 304 304 305 306 307 309 309 310 307 309 308 311 317 311 312 317 318 316 310 310 310 315 315 316 317 316 316 318 320 320 321 323 325 325 333 351 351 352 354
304 305 305 304 304 304 304 303 304 304 306 306 307 309 310 308 308 309 315 309 308 319 318 316 311 309 309 312 315 316 315 317 316 318 319 318 320 323 327 332 337 348 349 352 353
304 305 305 305 305 305 304 303 303 303 304 305 305 307 309 311 307 306 306 306 309 314 318 315 311 308 309 310 313 315 315 316 317 317 316 318 318 318 322 328 337 348 349 348 351
304 304 305 305 305 305 305 304 304 304 304 304 304 305 307 311 309 307 306 308 310 315 317 316 310 308 308 309 310 312 314 315 315 316 316 316 318 318 321 326 335 341 348 345 346
304 304 304 305 305 305 306 305 305 305 305 306 306 305 306 305 307 308 308 307 306 308 310 312 313 310 308 308 309 310 312 313 313 314 315 316 315 318 319 327 330 335 337 343 343
304 304 304 305 305 306 305 305 306 306 306 306 306 305 306 305 307 306 306 306 306 307 308 310 312 311 309 311 310 310 310 311 311 314 315 317 315 316 319 324 329 332 335 335 338
304 304 304 304 305 305 306 305 304 304 304 304 304 305 304 305 305 306 307 306 306 306 308 310 315 312 310 311 311 310 309 310 311 313 314 316 316 316 322 325 326 330 333 333 332
305 304 304 305 305 305 305 304 303 304 305 305 305 304 305 305 304 309 307 306 308 308 313 311 315 314 310 310 309 310 309 310 310 312 312 313 315 319 324 326 327 326 328 330 331
305 304 304 305 305 305 304 304 303 302 304 304 304 306 304 305 306 310 307 310 308 309 311 315 319 312 310 309 309 310 311 310 311 312 314 313 315 315 318 322 323 324 326 328 329
304 304 304 305 304 305 303 303 302 301 304 303 304 305 305 306 307 307 307 310 310 309 311 315 317 314 310 309 309 310 311 312 312 312 316 317 316 315 316 320 323 325 327 328 328
304 304 305 305 306 304 303 303 302 301 304 303 307 307 307 307 308 306 306 310 312 310 310 312 316 315 312 309 308 311 311 311 315 314 315 319 314 319 318 320 322 324 326 327 327
304 305 305 304 305 306 304 304 303 302 308 304 309 308 309 310 310 311 308 310 312 312 311 313 317 316 314 310 309 309 311 314 317 315 321 324 318 319 323 320 320 323 325 327 327
304 304 306 305 305 305 305 304 303 309 308 305 312 312 312 311 310 310 310 310 311 312 310 311 316 315 314 311 309 309 311 313 316 317 315 320 317 319 321 320 320 322 323 324 326
303 305 306 305 308 307 305 303 309 309 308 309 310 309 312 314 312 311 313 312 312 318 313 314 316 316 313 310 309 309 312 314 314 314 315 319 319 316 319 320 320 320 321 322 322
304 306 307 306 306 306 305 307 311 310 310 308 310 312 315 313 312 313 312 313 311 315 311 317 321 316 313 311 309 311 313 313 313 315 316 320 315 317 321 325 325 325 326 326 326
304 305 307 308 308 306 307 311 311 311 310 313 313 316 316 315 315 315 314 312 311 316 311 321 321 316 313 312 310 311 312 313 316 316 315 318 319 319 322 327 327 326 321 320 322
304 303 306 307 307 306 309 313 310 305 306 310 315 315 318 314 314 314 312 311 312 316 316 319 322 318 314 312 311 311 311 314 317 316 314 318 317 317 326 328 329 325 326 327 327
304 307 306 306 307 310 314 312 311 311 312 310 314 314 314 314 315 316 312 311 315 316 318 318 319 318 314 314 312 312 312 313 318 317 319 321 320 325 330 330 329 327 335 332 332
305 309 306 306 312 311 312 313 312 314 314 307 310 313 313 316 317 318 318 319 315 318 319 317 319 320 317 314 312 311 312 314 317 321 322 323 326 325 328 329 327 335 332 330 328
305 307 305 307 312 310 311 313 313 315 315 314 311 312 314 316 320 317 316 318 316 319 318 318 321 319 316 313 313 312 311 313 321 322 322 320 325 327 331 335 335 333 330 327 326
306 309 308 308 309 309 312 314 314 313 315 315 317 314 316 316 317 317 315 318 317 319 322 320 319 319 318 315 313 313 312 313 314 317 321 318 327 331 334 336 331 331 328 328 327
306 306 307 309 309 309 311 312 314 315 314 314 315 318 319 322 322 323 321 320 320 320 321 318 322 320 317 313 313 314 312 314 314 317 314 317 324 331 332 332 330 327 326 325 323
305 306 305 306 308 310 311 312 312 312 315 315 316 316 318 319 319 323 320 319 321 320 321 322 326 321 317 315 313 314 314 314 313 317 322 322 330 329 330 329 329 326 326 324 323
302 303 305 306 308 311 312 311 312 312 312 314 316 318 318 319 317 316 317 317 318 321 323 324 326 326 323 318 318 318 321 316 318 320 322 325 327 330 330 331 329 327 325 323 322
Wind_Speed
21 20 20 20 19 19 19 19 20 19 18 17 16 15 14 16 19 18 21 17 10 10 12 9 4 9 6 4 4 3 8 15 19 18 11 6 9 3 1 1 4 4 3 6 13
21 21 21 21 21 21 21 22 21 20 21 18 15 14 13 15 18 23 25 19 18 17 11 9 9 14 8 8 6 11 14 16 5 7 13 8 3 1 2 2 3 5 7 10 12
23 23 22 22 22 21 20 20 20 20 20 20 17 14 11 12 11 7 15 7 10 15 18 7 7 11 13 7 9 9 17 10 8 9 6 8 9 2 1 2 2 5 9 10 12
25 24 23 23 23 22 22 22 21 21 20 19 18 16 10 3 7 12 10 15 12 14 22 10 12 10 12 14 10 10 13 12 10 10 10 5 3 8 6 3 3 10 11 10 12
26 25 25 24 23 24 23 23 23 21 20 19 18 16 11 8 14 14 17 21 17 3 20 15 16 13 16 15 13 17 7 15 13 9 8 5 10 5 4 7 8 13 10 10 10
27 26 26 26 25 25 24 25 24 23 21 20 18 17 12 18 26 26 28 19 7 9 14 13 9 12 12 10 22 15 15 10 16 10 7 11 6 4 7 7 8 14 13 11 11
29 28 28 27 26 26 25 25 26 23 22 21 18 15 12 22 12 7 11 7 3 4 8 17 4 12 9 8 7 7 15 18 10 18 12 6 12 11 6 10 10 10 11 11 12
29 30 30 29 28 28 28 28 28 26 26 23 17 14 12 12 21 31 28 28 18 12 3 7 6 5 5 8 9 13 8 12 18 12 8 16 20 15 12 10 12 11 10 11 13
31 32 33 32 31 31 32 31 29 29 28 21 12 7 11 6 10 22 22 24 15 21 12 6 5 7 5 13 9 18 15 17 8 22 7 16 9 13 16 16 13 11 10 10 11
32 33 34 34 33 33 31 28 28 10 6 9 6 8 8 7 7 4 6 21 10 13 10 7 7 10 12 17 21 17 20 16 14 9 24 17 9 8 15 19 15 12 11 9 10
34 34 34 34 32 29 28 9 3 1 3 6 8 5 4 11 4 3 8 21 9 16 14 14 11 22 24 17 6 13 18 13 17 9 17 18 15 10 13 14 16 12 11 11 12
36 34 34 33 30 25 6 1 3 2 9 14 20 19 25 10 3 11 19 6 10 16 17 10 21 17 14 16 9 13 17 15 9 13 10 16 18 17 14 13 14 16 15 15 14
39 38 35 31 25 5 3 5 4 4 5 8 11 12 16 16 16 17 12 7 11 17 23 21 11 16 18 19 16 7 16 14 13 15 4 12 11 18 14 11 10 15 14 14 14
42 38 35 26 6 3 4 3 3 2 3 4 5 5 8 8 7 23 23 13 7 20 21 16 12 22 20 22 20 9 7 13 13 17 7 8 6 9 14 14 14 14 16 16 16
41 41 32 12 5 3 3 1 0 1 5 6 5 8 6 7 8 8 17 17 14 10 16 19 23 22 23 25 22 12 10 7 12 13 8 9 4 4 5 12 14 15 19 20 18
45 40 23 2 5 7 3 1 2 2 4 3 6 8 7 9 5 3 16 11 6 11 20 17 18 17 12 18 21 11 11 5 6 6 8 11 9 6 8 11 10 13 16 18 18
44 20 6 2 2 2 3 3 2 3 7 3 3 3 11 9 10 7 13 16 11 10 18 17 22 16 17 20 17 17 16 7 7 7 4 10 8 3 8 7 9 9 12 15 15
35 7 6 6 7 5 4 1 5 5 7 6 7 15 8 4 9 17 10 15 20 10 20 18 10 21 21 26 17 24 22 7 8 8 8 7 8 3 5 3 6 10 13 13 14
23 3 4 10 8 5 1 2 4 3 5 6 10 4 3 1 3 4 12 21 19 13 16 13 10 23 26 22 20 19 17 5 7 5 9 5 2 4 7 7 6 10 7 5 11
11 7 5 16 4 2 1 4 4 5 4 3 4 3 4 4 3 5 10 18 14 16 12 11 15 19 21 17 18 20 14 6 3 9 8 7 6 6 4 7 11 9 5 7 6
4 2 7 16 1 2 3 5 8 11 6 3 3 4 4 2 5 4 12 15 12 17 14 7 14 14 21 16 24 18 14 2 5 1 4 7 4 1 3 8 10 3 9 10 12
6 1 11 16 3 3 5 15 11 13 6 1 4 5 1 5 2 3 4 5 9 8 9 3 11 19 24 7 14 18 16 4 4 4 3 3 4 2 6 7 2 9 12 17 18
5 3 7 9 5 9 8 9 11 15 12 1 2 4 4 2 0 4 1 9 23 14 3 8 8 12 13 8 15 17 18 9 6 2 2 3 4 1 1 4 8 12 15 19 19
3 5 4 4 3 10 10 7 17 15 7 12 5 3 3 2 1 3 2 10 18 9 9 8 7 16 9 17 17 14 22 16 10 3 5 3 8 6 5 9 11 14 16 20 19
5 3 4 7 8 14 12 9 16 11 6 10 6 15 3 3 2 1 16 10 5 6 3 3 9 8 9 17 19 12 22 14 11 9 8 7 8 8 7 11 14 15 17 18 19
4 4 4 6 11 13 12 7 14 20 7 11 13 17 8 3 7 6 19 7 5 10 13 1 5 7 11 20 21 13 18 20 15 9 4 13 7 6 7 13 17 17 19 18 17
4 5 3 8 10 10 11 12 13 20 8 11 16 7 5 7 6 2 2 3 5 5 3 2 5 9 7 15 17 11 4 9 9 12 8 8 7 13 13 15 17 18 19 21 21
Wind_Direction
341 337 330 326 323 326 325 321 313 310 312 314 317 310 300 304 299 292 268 238 237 283 277 265 175 178 179 201 168 158 215 220 216 213 210 182 189 171 46 70 65 29 35 105 137
345 340 337 333 326 323 317 315 310 309 308 304 308 311 304 308 302 284 269 253 245 249 269 231 184 164 177 191 189 197 218 216 222 198 211 195 213 85 201 65 117 101 103 131 141
344 342 338 334 329 326 324 319 315 312 308 304 296 302 313 315 303 223 64 157 260 244 230 239 186 175 193 181 190 197 224 197 200 193 204 202 219 310 266 233 219 193 149 149 145
342 338 335 333 330 326 320 316 314 308 303 304 298 288 292 292 271 179 113 27 350 297 198 207 195 186 191 193 181 209 219 206 205 207 211 201 198 230 243 233 143 150 146 150 152
340 334 331 329 325 321 319 315 310 305 304 301 295 295 271 219 241 256 252 318 332 111 184 192 191 190 193 196 182 210 187 207 203 187 193 212 231 221 194 146 142 146 145 149 153
336 335 332 329 325 321 317 314 309 304 299 297 294 292 274 246 256 252 270 298 308 215 201 199 215 199 196 195 198 193 206 194 216 207 215 219 228 223 200 155 148 167 163 159 156
338 336 332 327 323 316 312 308 305 302 297 291 287 281 259 245 261 247 255 252 1 208 235 199 256 212 146 167 200 155 189 215 200 213 216 210 234 211 221 174 171 184 183 178 172
336 333 330 324 321 317 312 307 303 298 292 284 279 270 256 271 261 258 253 254 261 272 288 224 245 218 219 129 144 176 178 193 209 176 192 195 238 199 213 180 187 181 180 190 197
332 330 327 324 322 317 315 313 303 296 289 274 248 229 268 285 237 253 239 231 227 235 252 263 229 208 167 172 151 192 202 201 174 202 163 198 227 208 201 204 191 192 191 192 197
331 329 329 327 323 324 323 317 310 315 58 119 177 182 250 228 219 236 249 202 191 194 226 214 198 191 200 189 202 185 194 194 190 168 202 198 217 179 187 191 200 193 202 211 213
330 331 329 327 328 326 324 334 358 205 215 219 200 236 277 210 305 154 124 152 164 177 192 191 186 203 194 201 243 166 185 165 197 150 179 203 199 161 179 197 194 210 214 220 231
332 331 330 329 325 323 325 307 249 337 295 249 251 241 261 258 295 114 131 156 175 186 186 185 213 198 180 189 180 177 171 186 169 178 203 190 206 209 202 204 215 220 222 224 231
333 335 332 330 324 325 297 284 275 321 274 286 233 235 234 236 253 244 225 185 183 177 198 199 197 176 178 181 192 173 181 161 151 168 149 155 196 219 230 234 223 226 227 221 226
334 333 332 326 323 298 286 315 347 290 293 250 207 226 172 215 235 225 199 184 174 194 196 221 203 175 179 188 191 169 188 179 137 154 176 210 197 213 217 209 217 218 220 233 231
334 330 329 315 271 238 232 92 179 188 314 137 148 143 173 183 330 169 197 192 204 172 182 190 182 186 182 185 182 181 166 140 171 171 156 169 205 154 180 220 224 220 220 221 220
333 333 329 338 206 259 248 255 163 218 252 238 152 185 178 202 198 186 177 222 222 189 199 193 183 183 183 176 180 171 152 72 100 154 203 172 199 184 174 205 223 230 230 228 228
337 343 348 267 323 312 163 114 270 240 3 262 251 270 248 202 192 208 163 189 189 174 179 186 176 181 182 158 185 174 162 140 164 186 178 172 188 171 192 225 241 256 238 225 230
344 26 7 324 302 286 146 104 242 224 241 258 274 277 266 221 204 199 197 191 214 217 166 169 182 172 179 169 183 185 177 169 164 178 143 160 200 140 165 230 244 269 275 257 243
349 360 10 344 319 216 200 275 262 275 293 299 297 263 314 40 145 104 167 179 194 202 170 180 161 175 178 176 151 181 198 145 107 101 143 165 163 234 223 245 286 315 296 223 206
337 331 343 344 343 214 291 284 265 219 287 255 286 340 355 54 79 106 151 184 188 205 226 195 134 181 172 178 187 182 152 170 149 152 154 173 161 126 206 316 336 352 21 68 99
0 342 357 353 280 258 345 304 295 303 296 217 304 314 342 65 127 109 176 166 173 210 223 209 151 159 162 184 175 170 192 139 105 2 136 143 162 111 309 308 314 12 95 101 102
338 354 357 352 358 348 336 313 295 313 349 153 291 280 312 354 71 99 143 252 175 215 214 212 157 158 169 189 181 179 187 176 137 152 63 90 126 70 291 302 218 108 103 98 93
341 306 357 5 16 353 329 320 332 329 335 274 243 252 343 341 102 110 198 199 177 199 182 165 154 138 167 133 172 181 179 187 107 131 81 102 146 105 359 116 112 118 112 104 103
353 353 340 13 5 335 328 337 341 334 334 337 349 219 266 246 72 136 243 157 192 226 10 32 168 165 173 167 155 170 170 177 193 159 138 101 145 175 127 130 125 116 115 118 110
16 18 355 322 342 329 345 328 332 346 332 341 337 356 346 331 40 34 130 130 157 219 258 259 163 184 145 138 163 146 174 176 165 156 190 177 164 158 152 147 132 122 125 122 120
15 351 331 293 306 330 355 330 331 333 316 329 340 338 27 38 28 54 125 121 203 252 259 281 130 134 140 147 158 145 167 184 191 177 106 140 146 153 150 140 139 137 134 130 125
340 280 287 314 323 342 348 338 317 335 304 323 325 326 23 3 338 320 8 240 283 244 153 33 146 131 129 151 146 161 159 190 172 190 156 169 164 163 153 156 149 144 144 136 124